Iron Mountain, MI

7:24 PM CST on February 24, 2017 (GMT -0600)
Ford

Weather History for KIMT - October, 2013

Change the Weather History Date:

Sunday, October 20, 2013

  Actual Average Record
Temperature  
Mean Temperature 37 °F -  
Max Temperature 46 °F 54 °F 83 °F (1947)
Min Temperature 28 °F 31 °F 17 °F (1976)
Degree Days  
Heating Degree Days 28    
Moisture  
Dew Point 34 °F    
Average Humidity 87    
Maximum Humidity 96    
Minimum Humidity 56    
Precipitation  
Precipitation 0.01 in - - ()
Sea Level Pressure  
Sea Level Pressure 29.73 in    
Wind  
Wind Speed 3 mph (SW)    
Max Wind Speed 13 mph    
Max Gust Speed -    
Visibility 9 miles    
Events Rain    
Averages and records for this station are not official NWS values.
T = Trace of Precipitation, MM = Missing Value Source: NWS Daily Summary

Daily Weather History Graph

Daily Weather History Graph

Search for Another Location

Airport or City:

Trip Planner

Search our weather history database for the weather conditions in past years. The results will help you decide how hot, cold, wet, or windy it might be!

Date:

Astronomy

Oct. 20, 2013 Rise Set
Actual Time 7:16 AM CDT 5:57 PM CDT
Civil Twilight 6:45 AM CDT 6:27 PM CDT
Nautical Twilight 6:11 AM CDT 7:02 PM CDT
Astronomical Twilight 5:36 AM CDT 7:36 PM CDT
Moon 6:59 PM CDT (10/20) 8:59 AM CDT (10/20)
Length of Visible Light 11h 41m
Length of Day
10h 41m
Full, 97% of the Moon is Illuminated
Oct 20
Full
Oct 26
Last Quarter
Nov 3
New
Nov 9
First Quarter
Nov 17
Full

Hourly Weather History & Observations

Time (CDT) Temp. Windchill Dew Point Humidity Pressure Visibility Wind Dir Wind Speed Gust Speed Precip Events Conditions
12:21 AM 35.6 °F 32.8 °F 33.8 °F 93% 29.70 in 10.0 mi NW 3.5 mph - N/A   Mostly Cloudy
12:54 AM 37.0 °F 32.4 °F 34.0 °F 89% 29.73 in 10.0 mi NW 5.8 mph - N/A   Overcast
1:54 AM 37.0 °F 32.4 °F 34.0 °F 89% 29.74 in 10.0 mi NW 5.8 mph - N/A   Overcast
2:52 AM 35.6 °F 32.8 °F 33.8 °F 93% 29.71 in 10.0 mi West 3.5 mph - N/A   Scattered Clouds
2:54 AM 36.0 °F 33.3 °F 33.1 °F 89% 29.74 in 10.0 mi WNW 3.5 mph - N/A   Scattered Clouds
3:15 AM 35.6 °F - 33.8 °F 93% 29.71 in 10.0 mi Calm Calm - N/A   Scattered Clouds
3:24 AM 35.6 °F 31.7 °F 33.8 °F 93% 29.71 in 10.0 mi NW 4.6 mph - N/A   Mostly Cloudy
3:54 AM 36.0 °F - 33.1 °F 89% 29.75 in 10.0 mi Calm Calm - N/A   Overcast
4:28 AM 35.6 °F - 32.0 °F 87% 29.72 in 10.0 mi Calm Calm - N/A   Scattered Clouds
4:54 AM 33.1 °F - 32.0 °F 96% 29.76 in 10.0 mi Calm Calm - N/A   Clear
5:54 AM 30.9 °F - 30.0 °F 96% 29.77 in 10.0 mi Calm Calm - N/A   Partly Cloudy
6:06 AM 28.4 °F - 26.6 °F 93% 29.74 in 2.5 mi Calm Calm - N/A   Mostly Cloudy
6:15 AM 30.2 °F - 28.4 °F 93% 29.74 in 3.0 mi Calm Calm - N/A   Mostly Cloudy
6:54 AM 33.1 °F - 30.9 °F 92% 29.79 in 10.0 mi Calm Calm - N/A   Overcast
7:54 AM 35.1 °F 30.1 °F 33.1 °F 92% 29.80 in 10.0 mi WNW 5.8 mph - N/A   Overcast
8:54 AM 36.0 °F 31.1 °F 33.1 °F 89% 29.82 in 10.0 mi WNW 5.8 mph - N/A   Overcast
9:54 AM 37.0 °F 32.4 °F 33.1 °F 86% 29.82 in 10.0 mi WSW 5.8 mph - N/A   Overcast
10:54 AM 37.9 °F - 33.1 °F 83% 29.82 in 10.0 mi Calm Calm - N/A   Overcast
11:40 AM 39.2 °F - 33.8 °F 81% 29.78 in 10.0 mi Calm Calm - N/A   Overcast
11:54 AM 41.0 °F 39.0 °F 34.0 °F 76% 29.81 in 10.0 mi SW 3.5 mph - N/A   Mostly Cloudy
12:21 PM 42.8 °F 41.1 °F 33.8 °F 70% 29.76 in 10.0 mi Variable 3.5 mph - N/A   Scattered Clouds
12:54 PM 44.1 °F 40.8 °F 33.1 °F 65% 29.79 in 10.0 mi South 5.8 mph - N/A   Partly Cloudy
1:54 PM 46.0 °F 41.9 °F 30.9 °F 56% 29.76 in 10.0 mi South 8.1 mph - N/A   Mostly Cloudy
2:54 PM 45.0 °F 40.6 °F 33.1 °F 63% 29.75 in 10.0 mi SSE 8.1 mph - N/A   Mostly Cloudy
3:54 PM 44.1 °F 38.6 °F 33.1 °F 65% 29.74 in 10.0 mi SE 10.4 mph - N/A   Overcast
4:54 PM 39.9 °F 32.5 °F 33.1 °F 77% 29.76 in 5.0 mi South 12.7 mph - 0.00 in Rain Light Rain
5:40 PM 37.4 °F 34.9 °F 35.6 °F 93% 29.71 in 7.0 mi South 3.5 mph - 0.01 in Rain Light Rain
5:54 PM 37.9 °F 33.5 °F 35.1 °F 89% 29.75 in 10.0 mi SSE 5.8 mph - 0.01 in Rain Light Rain
6:54 PM 37.9 °F 35.5 °F 36.0 °F 93% 29.74 in 8.0 mi ESE 3.5 mph - 0.00 in Rain Light Rain
7:24 PM 37.4 °F 33.8 °F 35.6 °F 93% 29.70 in 10.0 mi ESE 4.6 mph - 0.00 in   Overcast
7:54 PM 37.0 °F - 35.1 °F 93% 29.74 in 7.0 mi Calm Calm - 0.00 in Rain Light Rain
8:07 PM 37.4 °F 32.8 °F 35.6 °F 93% 29.69 in 7.0 mi SSE 5.8 mph - 0.00 in Rain Light Rain
8:54 PM 37.0 °F - 35.1 °F 93% 29.71 in 8.0 mi Calm Calm - 0.00 in Rain Light Rain
9:04 PM 37.4 °F - 33.8 °F 87% 29.66 in 10.0 mi Calm Calm - 0.00 in Rain Light Rain
9:15 PM 37.4 °F - 35.6 °F 93% 29.66 in 10.0 mi Calm Calm - 0.00 in   Overcast
9:38 PM 37.4 °F - 35.6 °F 93% 29.65 in 10.0 mi Calm Calm - 0.00 in   Overcast
9:54 PM 37.0 °F - 35.1 °F 93% 29.68 in 10.0 mi Calm Calm - 0.00 in   Overcast
10:19 PM 37.4 °F - 35.6 °F 93% 29.65 in 10.0 mi Calm Calm - N/A   Overcast
10:39 PM 37.4 °F - 35.6 °F 93% 29.64 in 7.0 mi Calm Calm - 0.00 in Rain Light Rain
10:54 PM 37.0 °F - 35.1 °F 93% 29.67 in 8.0 mi Calm Calm - 0.00 in   Overcast
11:54 PM 37.9 °F - 35.1 °F 89% 29.66 in 8.0 mi Calm Calm - N/A   Overcast